Tiempo cada hora Barkowo

Hoy, 8 Marzo, Lunes

Tiempo Temperatura Precipitaciones Viento Presión Humedad
00:00 -4°C° 0 mm 2 mps 748 mmHg 80%
01:00 -3°C° 0 mm 1 mps 749 mmHg 80%
02:00 -5°C° 0 mm 2 mps 749 mmHg 79%
03:00 -5°C° 0 mm 2 mps 749 mmHg 78%
04:00 -5°C° 0 mm 2 mps 749 mmHg 77%
05:00 -5°C° 0 mm 2 mps 750 mmHg 78%
06:00 -4°C° 0 mm 2 mps 750 mmHg 79%
07:00 -4°C° 0 mm 2 mps 750 mmHg 79%
08:00 -4°C° 0 mm 3 mps 751 mmHg 72%
09:00 -1°C° 0 mm 3 mps 751 mmHg 64%
10:00 -1°C° 0 mm 4 mps 752 mmHg 57%
11:00 -1°C° 0 mm 4 mps 752 mmHg 55%
12:00 0°C° 0 mm 4 mps 752 mmHg 53%
13:00 0°C° 0 mm 4 mps 752 mmHg 51%
14:00 0°C° 0 mm 4 mps 752 mmHg 53%
15:00 0°C° 0 mm 4 mps 752 mmHg 55%
16:00 -1°C° 0 mm 4 mps 753 mmHg 56%
17:00 -1°C° 0 mm 3 mps 753 mmHg 65%
18:00 -2°C° 0 mm 3 mps 753 mmHg 73%
19:00 -4°C° 0 mm 2 mps 753 mmHg 81%
20:00 -4°C° 0 mm 2 mps 753 mmHg 83%
21:00 -2°C° 0 mm 1 mps 753 mmHg 85%
22:00 -2°C° 0 mm 1 mps 753 mmHg 88%
23:00 -2°C° 0 mm 1 mps 753 mmHg 87%

Mañana, 9 Marzo, Martes

Tiempo Temperatura Precipitaciones Viento Presión Humedad
00:00 -2°C° 0 mm 1 mps 753 mmHg 86%
01:00 -3°C° 0 mm 0 mps 753 mmHg 86%
02:00 -3°C° 0 mm 0 mps 753 mmHg 85%
03:00 -3°C° 0 mm 0 mps 753 mmHg 85%
04:00 -3°C° 0 mm 0 mps 753 mmHg 84%
05:00 -3°C° 0 mm 0 mps 753 mmHg 83%
06:00 -2°C° 0 mm 0 mps 753 mmHg 83%
07:00 -2°C° 0 mm 0 mps 753 mmHg 82%
08:00 -1°C° 0 mm 1 mps 753 mmHg 75%
09:00 0°C° 0 mm 1 mps 753 mmHg 69%
10:00 -1°C° 0 mm 2 mps 753 mmHg 63%
11:00 +1°C° 0 mm 2 mps 753 mmHg 58%
12:00 +1°C° 0 mm 2 mps 753 mmHg 54%
13:00 +2°C° 0 mm 2 mps 753 mmHg 49%
14:00 +2°C° 0 mm 2 mps 752 mmHg 49%
15:00 +2°C° 0 mm 2 mps 752 mmHg 49%
16:00 +2°C° 0 mm 2 mps 752 mmHg 49%
17:00 -1°C° 0 mm 2 mps 752 mmHg 56%
18:00 -2°C° 0 mm 2 mps 752 mmHg 62%
19:00 -3°C° 0 mm 2 mps 752 mmHg 69%
20:00 -3°C° 0 mm 2 mps 752 mmHg 70%
21:00 -3°C° 0 mm 2 mps 752 mmHg 71%
22:00 -3°C° 0 mm 2 mps 752 mmHg 73%
23:00 -3°C° 0 mm 2 mps 752 mmHg 73%

Pasado mañana, 10 Marzo, Miércoles

Tiempo Temperatura Precipitaciones Viento Presión Humedad
00:00 -3°C° 0 mm 2 mps 752 mmHg 73%
01:00 -4°C° 0 mm 2 mps 752 mmHg 73%
02:00 -2°C° 0 mm 1 mps 752 mmHg 74%
03:00 -2°C° 0 mm 1 mps 752 mmHg 74%
04:00 -2°C° 0 mm 1 mps 752 mmHg 74%
05:00 -2°C° 0 mm 1 mps 752 mmHg 72%
06:00 -2°C° 0 mm 1 mps 752 mmHg 70%
07:00 -2°C° 0 mm 1 mps 752 mmHg 69%
08:00 0°C° 0 mm 1 mps 752 mmHg 62%
09:00 +1°C° 0 mm 1 mps 753 mmHg 55%
10:00 +3°C° 0 mm 1 mps 753 mmHg 48%
11:00 +2°C° 0 mm 2 mps 753 mmHg 46%
12:00 +3°C° 0 mm 2 mps 753 mmHg 43%
13:00 +4°C° 0 mm 2 mps 753 mmHg 40%
14:00 +3°C° 0 mm 2 mps 753 mmHg 41%
15:00 +3°C° 0 mm 2 mps 752 mmHg 43%
16:00 +3°C° 0 mm 2 mps 752 mmHg 44%
17:00 +2°C° 0 mm 2 mps 752 mmHg 50%
18:00 -1°C° 0 mm 2 mps 752 mmHg 55%
19:00 -2°C° 0 mm 2 mps 752 mmHg 60%
20:00 -2°C° 0 mm 3 mps 752 mmHg 61%
21:00 -2°C° 0 mm 3 mps 752 mmHg 62%
22:00 -3°C° 0 mm 4 mps 752 mmHg 63%
23:00 -3°C° 0 mm 4 mps 751 mmHg 62%

11 Marzo, Jueves

Tiempo Temperatura Precipitaciones Viento Presión Humedad
00:00 -4°C° 0 mm 5 mps 751 mmHg 60%
01:00 -4°C° 0 mm 5 mps 750 mmHg 58%
02:00 -4°C° 0 mm 5 mps 749 mmHg 59%
03:00 -4°C° 0 mm 5 mps 748 mmHg 59%
04:00 -4°C° 0 mm 5 mps 747 mmHg 60%
05:00 -4°C° 0 mm 6 mps 747 mmHg 61%
06:00 -3°C° 0 mm 6 mps 746 mmHg 63%
07:00 -3°C° 0 mm 7 mps 745 mmHg 64%
08:00 -3°C° 0.3 mm 7 mps 744 mmHg 74%
09:00 -2°C° 0.3 mm 8 mps 744 mmHg 84%
10:00 -2°C° 0.3 mm 8 mps 743 mmHg 94%
11:00 -2°C° 1 mm 8 mps 742 mmHg 95%
12:00 -1°C° 1 mm 8 mps 741 mmHg 95%
13:00 -1°C° 1 mm 8 mps 740 mmHg 96%
14:00 -1°C° 1.7 mm 8 mps 739 mmHg 96%
15:00 0°C° 1.7 mm 7 mps 738 mmHg 95%
16:00 0°C° 1.7 mm 7 mps 737 mmHg 95%
17:00 +2°C° 0.5 mm 7 mps 737 mmHg 95%
18:00 +2°C° 0.5 mm 6 mps 736 mmHg 95%
19:00 +3°C° 0.5 mm 6 mps 736 mmHg 94%
20:00 +3°C° 0.3 mm 6 mps 736 mmHg 93%
21:00 +3°C° 0.3 mm 6 mps 736 mmHg 92%
22:00 +3°C° 0.3 mm 6 mps 736 mmHg 90%
23:00 +2°C° 0 mm 5 mps 736 mmHg 90%

12 Marzo, Viernes

Tiempo Temperatura Precipitaciones Viento Presión Humedad
00:00 +2°C° 0 mm 5 mps 736 mmHg 89%
01:00 +1°C° 0 mm 5 mps 737 mmHg 89%
02:00 +2°C° 0.1 mm 5 mps 737 mmHg 89%
03:00 +2°C° 0.1 mm 6 mps 737 mmHg 89%
04:00 +2°C° 0.1 mm 6 mps 737 mmHg 89%
05:00 +2°C° 0.1 mm 6 mps 738 mmHg 89%
06:00 +2°C° 0.1 mm 6 mps 738 mmHg 88%
07:00 0°C° 0.1 mm 7 mps 738 mmHg 88%
08:00 +2°C° 0.4 mm 7 mps 739 mmHg 84%
09:00 +2°C° 0.4 mm 7 mps 739 mmHg 81%
10:00 +3°C° 0.4 mm 7 mps 740 mmHg 77%
11:00 +4°C° 0.1 mm 7 mps 740 mmHg 73%
12:00 +4°C° 0.1 mm 7 mps 741 mmHg 68%
13:00 +5°C° 0.1 mm 8 mps 741 mmHg 64%
14:00 +5°C° 0.1 mm 7 mps 741 mmHg 65%
15:00 +4°C° 0.1 mm 7 mps 741 mmHg 66%
16:00 +4°C° 0.1 mm 6 mps 741 mmHg 67%
17:00 +3°C° 0 mm 5 mps 741 mmHg 72%
18:00 +3°C° 0 mm 4 mps 741 mmHg 76%
19:00 +2°C° 0 mm 3 mps 741 mmHg 80%
20:00 +1°C° 0 mm 4 mps 741 mmHg 82%
21:00 +1°C° 0 mm 4 mps 741 mmHg 84%
22:00 +1°C° 0 mm 4 mps 741 mmHg 85%
23:00 +1°C° 0 mm 5 mps 741 mmHg 87%

13 Marzo, Sábado

Tiempo Temperatura Precipitaciones Viento Presión Humedad
00:00 +1°C° 0 mm 5 mps 740 mmHg 88%
01:00 0°C° 0 mm 5 mps 740 mmHg 89%
02:00 0°C° 0 mm 5 mps 740 mmHg 88%
03:00 0°C° 0 mm 5 mps 739 mmHg 88%
04:00 0°C° 0 mm 5 mps 739 mmHg 87%
05:00 +1°C° 0 mm 5 mps 739 mmHg 88%
06:00 +1°C° 0 mm 5 mps 739 mmHg 88%
07:00 +1°C° 0 mm 5 mps 739 mmHg 88%
08:00 +2°C° 0 mm 6 mps 739 mmHg 84%
09:00 +3°C° 0 mm 6 mps 739 mmHg 81%
10:00 +4°C° 0 mm 7 mps 739 mmHg 77%
11:00 +4°C° 0.1 mm 6 mps 739 mmHg 72%
12:00 +5°C° 0.1 mm 6 mps 740 mmHg 67%
13:00 +5°C° 0.1 mm 6 mps 740 mmHg 61%
14:00 +6°C° 0.2 mm 5 mps 740 mmHg 62%
15:00 +6°C° 0.2 mm 5 mps 740 mmHg 62%
16:00 +6°C° 0.2 mm 5 mps 740 mmHg 62%
17:00 +5°C° 0.1 mm 4 mps 740 mmHg 68%
18:00 +4°C° 0.1 mm 3 mps 740 mmHg 74%
19:00 +3°C° 0.1 mm 3 mps 740 mmHg 79%
20:00 +2°C° 0 mm 3 mps 740 mmHg 81%
21:00 +2°C° 0 mm 3 mps 740 mmHg 83%
22:00 +1°C° 0 mm 3 mps 741 mmHg 86%
23:00 +1°C° 0 mm 3 mps 741 mmHg 86%
Mostrar más

Necesitamos Su Consentimiento

Meteoprog y nuestros Proveedores de Servicios pueden almacenar y acceder a sus datos personales como cookies, identificadores de dispositivo u otras tecnologías similares de su dispositivo y procesar dichos datos para personalizar contenido y anuncios, además de ofrecer funciones de redes sociales y analizar el tráfico.

  • Almacenar y/o acceder a información en su dispositivo

    Se puede almacenar o acceder a cookies, identificadores de dispositivo u otra información de su dispositivo para los fines anteriormente indicados.

  • Anuncios y contenido personalizados, medición de anuncios y contenido, percepciones del público, y desarrollo de productos

    Los anuncios y el contenido pueden personalizarse en base a su perfil. Se pueden añadir más datos para personalizar mejor los anuncios y contenidos. Se puede medir el rendimiento de los anuncios y contenidos. Se puede obtener la percepción sobre el público que ha visto los anuncios y contenidos. Dichos datos pueden usarse para desarrollar o mejorar la experiencia del usuario, sistemas y software.

Al hacer clic en ‘Estoy De Acuerdo’ usted permitirá el uso de las cookies, identificadores de dispositivo, balizas web u otras tecnologías similares indicadas. Su configuración puede cambiarse desde el navegador de su dispositivo.

Para ciertos fines, los intereses legítimos pueden ser considerados por encima del consentimiento. Puede leer más sobre ello en nuestra Política de Privacidad y Cookies.